Weather History for La Crosse, WI

Change the Weather History Date:

Thursday, March 20, 2014

  Actual Average Record
Temperature  
Mean Temperature 34 °F 36 °F  
Max Temperature 46 °F 46 °F 74 °F (2012)
Min Temperature 22 °F 27 °F -13 °F (1965)
Degree Days  
Heating Degree Days 31 29  
Month to date heating degree days 813 660  
Since 1 July heating degree days 7003 6169  
Cooling Degree Days 0 0  
Month to date cooling degree days 0 0  
Year to date cooling degree days 0 0  
Moisture  
Dew Point 23 °F    
Average Humidity 63    
Maximum Humidity 88    
Minimum Humidity 37    
Precipitation  
Precipitation 0.00 in 0.07 in 0.79 in (1995)
Month to date precipitation 0.63 1.20  
Year to date precipitation 2.99 3.37  
Snow  
Snow 0.00 in 0.20 in 5.60 in (1912)
Month to date snowfall 4.8 5.4  
Since 1 July snowfall 45.7 39.9  
Snow Depth 2.00 in    
Sea Level Pressure  
Sea Level Pressure 30.03 in    
Wind  
Wind Speed 3 mph (WSW)    
Max Wind Speed 9 mph    
Max Gust Speed 13 mph    
Visibility 10 miles    
Events      
T = Trace of Precipitation, MM = Missing Value Source: NWS Daily Summary

Daily Weather History Graph

Daily Weather History Graph

Search for Another Location

Airport:

Trip Planner

Search our weather history database for the weather conditions in past years. The results will help you decide how hot, cold, wet, or windy it might be!

Date:

Astronomy

Mar. 20, 2014 Rise Set
Actual Time 7:08 AM CDT 7:17 PM CDT
Civil Twilight 6:39 AM CDT 7:46 PM CDT
Nautical Twilight 6:05 AM CDT 8:19 PM CDT
Astronomical Twilight 5:31 AM CDT 8:54 PM CDT
Moon 11:46 PM CDT (3/20) 9:06 AM CDT (3/20)
Length of Visible Light 13h 06m
Length of Day
12h 09m
Waning Gibbous, 84% of the Moon is Illuminated
Mar 20
Waning Gibbous
Mar 23
Last Quarter
Mar 30
New
Apr 7
First Quarter
Apr 15
Full

Hourly Weather History & Observations

Time (CDT) Temp. Windchill Dew Point Humidity Pressure Visibility Wind Dir Wind Speed Gust Speed Precip Events Conditions
12:53 AM 30.9 °F 25.2 °F 24.1 °F 76% 30.01 in 10.0 mi West 5.8 mph - N/A   Clear
1:53 AM 30.0 °F 25.2 °F 23.0 °F 75% 30.01 in 10.0 mi West 4.6 mph - N/A   Clear
2:53 AM 27.0 °F - 21.9 °F 81% 30.02 in 10.0 mi Calm Calm - N/A   Clear
3:53 AM 27.0 °F - 21.9 °F 81% 30.02 in 10.0 mi Calm Calm - N/A   Clear
4:53 AM 25.0 °F - 21.0 °F 85% 30.04 in 10.0 mi Calm Calm - N/A   Clear
5:53 AM 25.0 °F - 21.0 °F 85% 30.06 in 10.0 mi Calm Calm - N/A   Clear
6:53 AM 23.0 °F 18.4 °F 19.9 °F 88% 30.06 in 7.0 mi East 3.5 mph - N/A   Clear
7:53 AM 25.0 °F - 21.9 °F 88% 30.07 in 6.0 mi Calm Calm - N/A   Clear
8:53 AM 30.0 °F - 25.0 °F 82% 30.07 in 10.0 mi Calm Calm - N/A   Clear
9:53 AM 33.1 °F 27.7 °F 26.1 °F 75% 30.08 in 10.0 mi SE 5.8 mph - N/A   Clear
10:53 AM 36.0 °F 33.3 °F 26.1 °F 67% 30.07 in 10.0 mi South 3.5 mph - N/A   Clear
11:53 AM 39.0 °F 34.8 °F 25.0 °F 57% 30.07 in - NNW 5.8 mph - N/A   Clear
12:53 PM 41.0 °F 38.0 °F 25.0 °F 53% 30.06 in 10.0 mi Variable 4.6 mph - N/A   Clear
1:53 PM 43.0 °F 39.5 °F 24.1 °F 47% 30.04 in 10.0 mi NW 5.8 mph - N/A   Clear
2:53 PM 45.0 °F 42.6 °F 23.0 °F 42% 30.02 in - Variable 4.6 mph - N/A   Partly Cloudy
3:53 PM 46.0 °F 43.1 °F 23.0 °F 40% 30.00 in 10.0 mi North 5.8 mph - N/A   Clear
4:53 PM 46.0 °F 43.1 °F 21.9 °F 39% 30.00 in 10.0 mi NNW 5.8 mph - N/A   Clear
5:53 PM 45.0 °F 42.6 °F 21.9 °F 40% 30.00 in 10.0 mi North 4.6 mph - N/A   Clear
6:53 PM 43.0 °F - 21.9 °F 43% 30.00 in 10.0 mi Calm Calm - N/A   Clear
7:53 PM 37.0 °F 31.6 °F 23.0 °F 57% 30.01 in 10.0 mi SSW 6.9 mph - N/A   Clear
8:53 PM 37.0 °F 34.5 °F 23.0 °F 57% 30.02 in 10.0 mi SSE 3.5 mph - N/A   Clear
9:53 PM 32.0 °F 28.7 °F 24.1 °F 73% 30.02 in 10.0 mi SSE 3.5 mph - N/A   Clear
10:53 PM 30.0 °F 25.2 °F 23.0 °F 75% 30.02 in 10.0 mi ESE 4.6 mph - N/A   Clear
11:53 PM 30.9 °F - 23.0 °F 72% 30.01 in 10.0 mi Calm Calm - N/A   Clear